Regional Weather Roundup
Issued by NWS Bismarck, ND

Home | Current Version | Previous Version | Text Only | Print | Product List | Glossary On
Versions: 1 2 3 4 5 6 7 8 9 10 11 12 13 14 15 16 17 18 19 20 21 22 23 24 25 26 27 28 29 30 31 32 33 34 35 36 37 38 39 40 41 42 43 44 45 46 47 48 49 50
000
ASUS43 KBIS 211210
RWRBIS

NWR BROADCAST TEXT
NATIONAL WEATHER SERVICE BISMARCK ND
600 AM CST SAT JAN 21 2017

NOTE: "FAIR" INDICATES FEW OR NO CLOUDS BELOW 12,000 FEET WITH NO
SIGNIFICANT WEATHER AND/OR OBSTRUCTIONS TO VISIBILITY.


CITY           SKY/WX    TMP DP  RH WIND       PRES   REMARKS
WILLISTON      CLOUDY    26  23  88 E6        29.30S WCI  19
MINOT          CLOUDY    28  26  92 CALM      29.30S FOG
MINOT AFB      CLOUDY    26  26  96 CALM      29.29F FOG
BISMARCK       CLOUDY    30  28  92 W6        29.32S FOG
DICKINSON      CLOUDY    29  26  89 W9        29.27S
GARRISON         N/A     23  22  96 CALM      29.30R
HETTINGER ARPT CLOUDY    32  28  85 W14       29.31S
JAMESTOWN      FOG       33  33 100 SE10      29.32S VSB 3/4
CARRINGTON     FOG       34  34 100 SE10      29.34S VSB 1/4
HAZEN          FOG      N/A N/A N/A W7        29.34R VSB 1/2
MANDAN         PTSUNNY   27  27 100 W8        29.31S WCI  18
RUGBY            N/A     32  32 100 SE5       29.32S
STANLEY        FOG       14  16 100 SW6       29.31R VSB<1/4 WCI   5
TIOGA          CLOUDY    12  12 100 CALM      29.30S
WATFORD CITY   CLOUDY    30  27  86 NW6       29.30S
$$

CITY           SKY/WX    TMP DP  RH WIND       PRES   REMARKS
GRAND FORKS    CLOUDY    35  32  88 SE8       29.39S
GRAND FORKS AF CLOUDY    33  33  99 SE6       29.38S
DEVILS LAKE    FOG       33  32  96 SE7       29.34R VSB 1/4
FARGO          CLOUDY    38  35  89 SE13      29.37F
CAVALIER       FOG       32  32 100 SE5       29.40S VSB 1
GRAFTON        CLOUDY    34  34 100 SE9       29.41S
GWINNER        CLOUDY    34  34 100 SE10      29.35S VSB 1/4
ROLLA            N/A    N/A N/A N/A MISG        N/A
$$

CITY           SKY/WX    TMP DP  RH WIND       PRES   REMARKS
ABERDEEN       FOG       31  29  92 CALM      29.32F VSB 3/4
MOBRIDGE       CLOUDY    28  25  88 NW6       29.28S
BUFFALO          N/A     31  29  92 W9        29.26R
RAPID CITY     FAIR      32  28  85 N8        29.34S
GLASGOW        FAIR      22  20  92 W10       29.35R WCI  11
SIDNEY         CLOUDY    34  26  72 W17       29.31S
WOLF POINT     FAIR      25  21  85 W12       29.35S WCI  14
GLENDIVE       CLOUDY    29  24  82 W5        29.34S
MILES CITY     FOG       20  17  88 S6        29.36F VSB<1/4 WCI  12
BAKER          CLOUDY    28  26  92 W10       29.33S WCI  19
$$

CITY           SKY/WX    TMP DP  RH WIND       PRES   REMARKS
BILLINGS       FOG       18  17  96 SW14      29.33F VSB 1/2 WCI   4
GREAT FALLS    FAIR      17  12  80 CALM      29.32S
REGINA         CLOUDY    18  16  93 E5        29.28R WCI  11
ESTEVAN        FOG       14  12  92 E2        29.29S VSB 1/8
$$




USA.gov is the U.S. government's official web portal to all federal, state and local government web resources and services.